| time (UTC) | temp C | wind direction | speed KPH | gust KPH | rain 1hr cm | rain 24hr cm | rain mn cm | humidity % | barometer mb |
| 20260502233054 | 33 | 70 | 12.9 | 0.0 | 0.00 | 0.00 | 0.00 | 52 | 1009.0 |
| 20260502232054 | 33 | 70 | 12.9 | 0.0 | 0.00 | 0.00 | 0.00 | 52 | 1008.0 |
| 20260502231053 | 33 | 70 | 12.9 | 0.0 | 0.00 | 0.00 | 0.00 | 52 | 1008.0 |
| 20260502230053 | 33 | 70 | 14.5 | 0.0 | 0.00 | 0.00 | 0.00 | 52 | 1008.0 |
| 20260502225053 | 33 | 70 | 14.5 | 0.0 | 0.00 | 0.00 | 0.00 | 52 | 1008.0 |
| 20260502224052 | 33 | 70 | 14.5 | 0.0 | 0.00 | 0.00 | 0.00 | 52 | 1008.0 |
| 20260502223052 | 33 | 70 | 14.5 | 0.0 | 0.00 | 0.00 | 0.00 | 52 | 1008.0 |
| 20260502222052 | 33 | 90 | 8.0 | 0.0 | 0.00 | 0.00 | 0.00 | 52 | 1007.0 |
| 20260502221051 | 33 | 90 | 8.0 | 0.0 | 0.00 | 0.00 | 0.00 | 52 | 1007.0 |
| 20260502220050 | 33 | 90 | 9.7 | 0.0 | 0.00 | 0.00 | 0.00 | 52 | 1007.0 |
| 20260502215050 | 33 | 90 | 9.7 | 0.0 | 0.00 | 0.00 | 0.00 | 52 | 1007.0 |
| 20260502214050 | 33 | 90 | 9.7 | 0.0 | 0.00 | 0.00 | 0.00 | 52 | 1007.0 |
| 20260502213050 | 33 | 90 | 9.7 | 0.0 | 0.00 | 0.00 | 0.00 | 52 | 1007.0 |
| 20260502212049 | 35 | 160 | 11.3 | 12.9 | 0.00 | 0.00 | 0.00 | 49 | 1007.0 |
| 20260502211049 | 34 | 160 | 11.3 | 12.9 | 0.00 | 0.00 | 0.00 | 50 | 1007.0 |
| 20260502210048 | 36 | 90 | 6.4 | 0.0 | 0.00 | 0.00 | 0.00 | 39 | 1008.0 |
| 20260502205048 | 36 | 90 | 6.4 | 0.0 | 0.00 | 0.00 | 0.00 | 39 | 1008.0 |
| 20260502204048 | 36 | 90 | 6.4 | 0.0 | 0.00 | 0.00 | 0.00 | 39 | 1008.0 |
| 20260502203047 | 35 | 90 | 8.0 | 0.0 | 0.00 | 0.00 | 0.00 | 46 | 1008.0 |
| 20260502202047 | 35 | 90 | 8.0 | 0.0 | 0.00 | 0.00 | 0.00 | 46 | 1007.0 |
| 20260502201047 | 35 | 90 | 8.0 | 0.0 | 0.00 | 0.00 | 0.00 | 46 | 1008.0 |
| 20260502200047 | 35 | 90 | 8.0 | 0.0 | 0.00 | 0.00 | 0.00 | 46 | 1008.0 |
| 20260502195046 | 35 | 90 | 8.0 | 0.0 | 0.00 | 0.00 | 0.00 | 46 | 1008.0 |
| 20260502194046 | 35 | 90 | 8.0 | 0.0 | 0.00 | 0.00 | 0.00 | 46 | 1008.0 |
| 20260502193046 | 35 | 90 | 8.0 | 0.0 | 0.00 | 0.00 | 0.00 | 46 | 1008.0 |
| 20260502192045 | 35 | 90 | 8.0 | 0.0 | 0.00 | 0.00 | 0.00 | 46 | 1009.0 |
| 20260502191045 | 35 | 90 | 8.0 | 0.0 | 0.00 | 0.00 | 0.00 | 46 | 1009.0 |
| 20260502190044 | 35 | 90 | 9.7 | 0.0 | 0.00 | 0.00 | 0.00 | 46 | 1009.0 |
| 20260502185044 | 35 | 90 | 9.7 | 0.0 | 0.00 | 0.00 | 0.00 | 46 | 1009.0 |
| 20260502184044 | 35 | 90 | 9.7 | 0.0 | 0.00 | 0.00 | 0.00 | 46 | 1009.0 |
| 20260502183043 | 31 | 62 | 16.1 | 17.7 | 0.00 | 0.00 | 0.00 | 62 | 1009.0 |
| 20260502182043 | 31 | 62 | 16.1 | 17.7 | 0.00 | 0.00 | 0.00 | 62 | 1010.0 |
| 20260502181043 | 31 | 62 | 16.1 | 17.7 | 0.00 | 0.00 | 0.00 | 62 | 1010.0 |
| 20260502164040 | 31 | 0 | 0.0 | 0.0 | 0.00 | 0.00 | 0.00 | 62 | 1011.0 |
| 20260502163039 | 29 | 90 | 8.0 | 0.0 | 0.00 | 0.00 | 0.00 | 66 | 1011.0 |
| 20260502162039 | 29 | 90 | 8.0 | 0.0 | 0.00 | 0.00 | 0.00 | 66 | 1012.0 |
| 20260502161039 | 29 | 90 | 8.0 | 0.0 | 0.00 | 0.00 | 0.00 | 66 | 1012.0 |
| 20260502152037 | 28 | 67 | 11.3 | 14.5 | 0.00 | 0.00 | 0.00 | 82 | 1012.0 |
| 20260502151037 | 28 | 67 | 11.3 | 14.5 | 0.00 | 0.00 | 0.00 | 82 | 1012.0 |
| 20260502123032 | 25 | 28 | 4.8 | 8.0 | 0.00 | 0.00 | 0.00 | 81 | 1012.0 |
| 20260502122031 | 25 | 28 | 4.8 | 8.0 | 0.00 | 0.00 | 0.00 | 81 | 1011.0 |
| 20260502121031 | 25 | 28 | 4.8 | 8.0 | 0.00 | 0.00 | 0.00 | 81 | 1011.0 |
| 20260502115030 | 25 | 28 | 4.8 | 8.0 | 0.00 | 0.00 | 0.00 | 81 | 1011.0 |
| 20260502114030 | 25 | 28 | 4.8 | 8.0 | 0.00 | 0.00 | 0.00 | 81 | 1011.0 |
| 20260502113030 | 25 | 28 | 4.8 | 8.0 | 0.00 | 0.00 | 0.00 | 81 | 1011.0 |
| 20260502112029 | 25 | 28 | 4.8 | 8.0 | 0.00 | 0.00 | 0.00 | 81 | 1011.0 |
| 20260502111029 | 25 | 28 | 4.8 | 8.0 | 0.00 | 0.00 | 0.00 | 81 | 1011.0 |
| 20260502110029 | 25 | 28 | 4.8 | 8.0 | 0.00 | 0.00 | 0.00 | 81 | 1011.0 |
| 20260502105029 | 25 | 28 | 4.8 | 8.0 | 0.00 | 0.00 | 0.00 | 81 | 1011.0 |
| 20260502104028 | 25 | 28 | 4.8 | 8.0 | 0.00 | 0.00 | 0.00 | 81 | 1011.0 |
| 20260502103028 | 25 | 28 | 4.8 | 8.0 | 0.00 | 0.00 | 0.00 | 81 | 1011.0 |
| 20260502102028 | 25 | 28 | 4.8 | 8.0 | 0.00 | 0.00 | 0.00 | 81 | 1010.0 |
| 20260502101027 | 25 | 28 | 4.8 | 8.0 | 0.00 | 0.00 | 0.00 | 81 | 1010.0 |
| 20260502091026 | 25 | 28 | 4.8 | 8.0 | 0.00 | 0.00 | 0.00 | 81 | 1010.0 |
| 20260502071022 | 28 | 76 | 17.7 | 37.0 | 0.00 | 0.00 | 0.00 | 62 | 1010.0 |
| 20260502070022 | 28 | 76 | 17.7 | 37.0 | 0.00 | 0.00 | 0.00 | 62 | 1010.0 |
| 20260502065022 | 28 | 76 | 17.7 | 37.0 | 0.00 | 0.00 | 0.00 | 62 | 1010.0 |
| 20260502064022 | 28 | 76 | 17.7 | 37.0 | 0.00 | 0.00 | 0.00 | 62 | 1010.0 |
| 20260502063022 | 28 | 76 | 17.7 | 37.0 | 0.00 | 0.00 | 0.00 | 62 | 1010.0 |
| 20260502062022 | 28 | 76 | 17.7 | 37.0 | 0.00 | 0.00 | 0.00 | 62 | 1010.0 |
| 20260502061021 | 28 | 76 | 17.7 | 37.0 | 0.00 | 0.00 | 0.00 | 62 | 1010.0 |
| 20260502060021 | 28 | 76 | 17.7 | 37.0 | 0.00 | 0.00 | 0.00 | 62 | 1010.0 |
| 20260502055021 | 28 | 76 | 17.7 | 37.0 | 0.00 | 0.00 | 0.00 | 62 | 1010.0 |
| 20260502054020 | 28 | 76 | 17.7 | 37.0 | 0.00 | 0.00 | 0.00 | 62 | 1010.0 |
| 20260502053020 | 28 | 76 | 17.7 | 37.0 | 0.00 | 0.00 | 0.00 | 62 | 1010.0 |
| 20260502052020 | 28 | 76 | 17.7 | 37.0 | 0.00 | 0.00 | 0.00 | 62 | 1011.0 |
| 20260502051019 | 28 | 76 | 17.7 | 37.0 | 0.00 | 0.00 | 0.00 | 62 | 1011.0 |
| 20260502050019 | 28 | 76 | 17.7 | 37.0 | 0.00 | 0.00 | 0.00 | 62 | 1011.0 |
| 20260502045019 | 28 | 76 | 17.7 | 37.0 | 0.00 | 0.00 | 0.00 | 62 | 1011.0 |
| 20260502044018 | 28 | 76 | 17.7 | 37.0 | 0.00 | 0.00 | 0.00 | 62 | 1011.0 |
| 20260502043018 | 28 | 76 | 17.7 | 37.0 | 0.00 | 0.00 | 0.00 | 62 | 1011.0 |
| 20260502042018 | 28 | 76 | 17.7 | 37.0 | 0.00 | 0.00 | 0.00 | 62 | 1011.0 |
| 20260502041018 | 28 | 76 | 17.7 | 37.0 | 0.00 | 0.00 | 0.00 | 62 | 1011.0 |
| 20260502040018 | 28 | 76 | 17.7 | 37.0 | 0.00 | 0.00 | 0.00 | 62 | 1011.0 |
| 20260502035017 | 28 | 76 | 17.7 | 37.0 | 0.00 | 0.00 | 0.00 | 62 | 1011.0 |
| 20260502034017 | 28 | 76 | 17.7 | 37.0 | 0.00 | 0.00 | 0.00 | 62 | 1011.0 |
| 20260502033017 | 28 | 76 | 17.7 | 37.0 | 0.00 | 0.00 | 0.00 | 62 | 1011.0 |
| 20260502032016 | 28 | 76 | 17.7 | 37.0 | 0.00 | 0.00 | 0.00 | 62 | 1010.0 |
| 20260502031016 | 28 | 76 | 17.7 | 37.0 | 0.00 | 0.00 | 0.00 | 62 | 1010.0 |
| 20260502030016 | 28 | 76 | 17.7 | 37.0 | 0.00 | 0.00 | 0.00 | 62 | 1010.0 |
| 20260502025015 | 28 | 76 | 17.7 | 37.0 | 0.00 | 0.00 | 0.00 | 62 | 1010.0 |
| 20260502024015 | 28 | 76 | 17.7 | 37.0 | 0.00 | 0.00 | 0.00 | 62 | 1010.0 |
| 20260502023015 | 28 | 76 | 17.7 | 37.0 | 0.00 | 0.00 | 0.00 | 62 | 1009.0 |
| 20260502022014 | 28 | 76 | 17.7 | 37.0 | 0.00 | 0.00 | 0.00 | 62 | 1009.0 |
| 20260502021014 | 28 | 76 | 17.7 | 37.0 | 0.00 | 0.00 | 0.00 | 62 | 1009.0 |
| 20260502020014 | 28 | 76 | 17.7 | 37.0 | 0.00 | 0.00 | 0.00 | 62 | 1009.0 |
| 20260502015013 | 28 | 76 | 17.7 | 37.0 | 0.00 | 0.00 | 0.00 | 62 | 1009.0 |
| 20260502014013 | 28 | 76 | 19.3 | 37.0 | 0.00 | 0.00 | 0.00 | 62 | 1009.0 |
| 20260502013013 | 32 | 62 | 20.9 | 24.1 | 0.00 | 0.00 | 0.00 | 44 | 1009.0 |
| 20260502012012 | 32 | 62 | 20.9 | 24.1 | 0.00 | 0.00 | 0.00 | 44 | 1008.0 |
| 20260502011012 | 32 | 62 | 20.9 | 24.1 | 0.00 | 0.00 | 0.00 | 44 | 1008.0 |
| 20260502010012 | 32 | 62 | 20.9 | 24.1 | 0.00 | 0.00 | 0.00 | 44 | 1008.0 |
| 20260502005011 | 32 | 62 | 20.9 | 24.1 | 0.00 | 0.00 | 0.00 | 44 | 1008.0 |
| 20260502004011 | 32 | 62 | 20.9 | 24.1 | 0.00 | 0.00 | 0.00 | 44 | 1008.0 |
| 20260502003011 | 32 | 62 | 20.9 | 24.1 | 0.00 | 0.00 | 0.00 | 44 | 1007.0 |
| 20260502002010 | 32 | 62 | 20.9 | 24.1 | 0.00 | 0.00 | 0.00 | 44 | 1007.0 |
| 20260502001010 | 32 | 62 | 20.9 | 24.1 | 0.00 | 0.00 | 0.00 | 44 | 1007.0 |
| 20260502000010 | 32 | 62 | 20.9 | 24.1 | 0.00 | 0.00 | 0.00 | 44 | 1007.0 |
| 20260501235010 | 32 | 62 | 20.9 | 24.1 | 0.00 | 0.00 | 0.00 | 44 | 1007.0 |